Weather History for Rome, GA

Change the Weather History Date:

Monday, November 19, 2012

  Actual Average Record
Temperature  
Mean Temperature 49 °F 50 °F  
Max Temperature 64 °F 62 °F 73 °F (2001)
Min Temperature 34 °F 38 °F 15 °F (2014)
Degree Days  
Heating Degree Days 16 15  
Month to date heating degree days 238  
Since 1 July heating degree days 415  
Moisture  
Dew Point 38 °F    
Average Humidity 69    
Maximum Humidity 96    
Minimum Humidity 31    
Precipitation  
Precipitation 0.00 in 0.17 in 0.34 in (2000)
Month to date precipitation 2.80  
Snow  
Snow 0.00 in - - ()
Month to date snowfall  
Since 1 July snowfall  
Since 1 September snowfall  
Snow Depth -    
Sea Level Pressure  
Sea Level Pressure 30.27 in    
Wind  
Wind Speed 4 mph (NNE)    
Max Wind Speed 17 mph    
Max Gust Speed 29 mph    
Visibility 10 miles    
Events      
T = Trace of Precipitation, MM = Missing Value Source: NWS Daily Summary

Daily Weather History Graph

Daily Weather History Graph

Search for Another Location

Airport:

Trip Planner

Search our weather history database for the weather conditions in past years. The results will help you decide how hot, cold, wet, or windy it might be!

Date:

Astronomy

Nov. 19, 2012 Rise Set
Actual Time 7:18 AM EST 5:33 PM EST
Civil Twilight 6:51 AM EST 6:00 PM EST
Nautical Twilight 6:20 AM EST 6:31 PM EST
Astronomical Twilight 5:50 AM EST 7:01 PM EST
Moon 12:26 PM EST (11/19) 11:53 PM EST (11/19)
Length of Visible Light 11h 09m
Length of Day
10h 15m
Waxing Crescent, 40% of the Moon is Illuminated
Nov 19
Waxing Crescent
Nov 20
First Quarter
Nov 28
Full
Dec 6
Last Quarter
Dec 13
New

Hourly Weather History & Observations

Time (EST) Temp. Windchill Dew Point Humidity Pressure Visibility Wind Dir Wind Speed Gust Speed Precip Events Conditions
12:53 AM 42.1 °F 33.9 °F 37.9 °F 85% 30.32 in 10.0 mi East 17.3 mph 28.8 mph N/A   Clear
1:53 AM 39.9 °F - 36.0 °F 86% 30.32 in 10.0 mi Calm Calm - N/A   Clear
2:53 AM 37.9 °F 34.4 °F 36.0 °F 93% 30.32 in 10.0 mi North 4.6 mph - N/A   Clear
3:53 AM 37.9 °F - 35.1 °F 89% 30.31 in 10.0 mi Calm Calm - N/A   Clear
4:53 AM 37.0 °F - 34.0 °F 89% 30.31 in 10.0 mi Calm Calm - N/A   Clear
5:53 AM 35.1 °F - 33.1 °F 92% 30.30 in 10.0 mi Calm Calm - N/A   Clear
6:53 AM 34.0 °F - 33.1 °F 96% 30.32 in 10.0 mi Calm Calm - N/A   Clear
7:53 AM 36.0 °F - 33.1 °F 89% 30.32 in 10.0 mi Calm Calm - N/A   Clear
8:23 AM 37.4 °F 34.9 °F 33.8 °F 87% 30.32 in 10.0 mi NE 3.5 mph - N/A   Partly Cloudy
8:53 AM 44.1 °F - 36.0 °F 73% 30.33 in 10.0 mi Calm Calm - N/A   Clear
9:53 AM 46.0 °F - 37.0 °F 71% 30.33 in 10.0 mi Calm Calm - N/A   Clear
10:53 AM 51.1 °F - 36.0 °F 56% 30.32 in 10.0 mi Calm Calm - N/A   Overcast
11:53 AM 55.9 °F - 37.0 °F 49% 30.30 in 10.0 mi Calm Calm - N/A   Overcast
12:53 PM 61.0 °F - 37.9 °F 42% 30.27 in 10.0 mi Calm Calm - N/A   Overcast
1:53 PM 62.1 °F - 37.9 °F 41% 30.24 in 10.0 mi SE 3.5 mph - N/A   Mostly Cloudy
2:53 PM 64.9 °F - 37.9 °F 37% 30.22 in 10.0 mi Calm Calm - N/A   Overcast
3:53 PM 64.9 °F - 39.0 °F 39% 30.21 in 10.0 mi NNE 4.6 mph - N/A   Mostly Cloudy
4:53 PM 64.0 °F - 39.9 °F 41% 30.20 in 10.0 mi North 3.5 mph - N/A   Overcast
5:53 PM 60.1 °F - 42.1 °F 51% 30.19 in 10.0 mi Calm Calm - N/A   Overcast
6:53 PM 55.9 °F - 42.1 °F 60% 30.19 in 10.0 mi WNW 3.5 mph - N/A   Overcast
7:53 PM 55.0 °F - 45.0 °F 69% 30.20 in 10.0 mi Calm Calm - N/A   Overcast
8:53 PM 55.0 °F - 43.0 °F 64% 30.19 in 10.0 mi Calm Calm - N/A   Overcast
9:53 PM 53.1 °F - 44.1 °F 71% 30.20 in 10.0 mi Calm Calm - N/A   Mostly Cloudy
10:53 PM 51.1 °F - 44.1 °F 77% 30.19 in 10.0 mi Calm Calm - N/A   Mostly Cloudy
11:53 PM 48.0 °F - 44.1 °F 86% 30.19 in 10.0 mi Calm Calm - N/A   Mostly Cloudy